カタログに戻る

SITRO-AIS-13

運用中通信SSO
NORAD 61743·PAYLOAD·🇷🇺 Russia
この衛星名は、まだ公式ソースで確認されていません。

打ち上げ Nov 4, 2024 から Vostochny Cosmodrome

Loading…

次のパス (今後24時間)

TLE

最新Source: Space-Track

元期: Sep 14, 2026, 20:01 UTC

1 61743U 24199J   26257.83462476  .00002633  00000-0  22585-3 0  9997
2 61743  97.3204  91.8176 0007937 113.7206 246.4851 14.98266409145410

AllMySatでSITRO-AIS-13をリアルタイム追跡

Download on the App Store